Tracking 28794 objects as of 19-Apr-2024
HD Live streaming from Space Station
objects crossing your sky now

COSMOS 445

Track COSMOS 445 now!
10-day predictions
COSMOS 445 is classified as:


NORAD ID: 5548
Int'l Code: 1971-086B
Perigee: 1,357.0 km
Apogee: 1,518.0 km
Inclination: 74.0 °
Period: 114.4 minutes
Semi major axis: 7808 km
RCS: 0.7352 m2 (medium)
Launch date: October 13, 1971
Source: Commonwealth of Independent States (former USSR) (CIS)
Launch site: PLESETSK MISSILE AND SPACE COMPLEX (PKMTR)
Your satellite tracking list
Your tracking list is empty




NASA's NSSDC Master Catalog

Two Line Element Set (TLE):
1 05548U 71086B   24110.60557397  .00000011  00000-0  15956-3 0  9995
2 05548  74.0262 272.5588 0103102   3.7216  69.2658 12.58207437412033
Source of the keplerian elements: AFSPC